16-10-2022, 00:00:00,    196,    0.9,    9.7,   0.00,   0.00, 1002.3,   67.0, -999.0
16-10-2022, 00:00:10,    195,    0.7,    9.7,   0.00,   0.00, 1002.3,   67.1, -999.0
16-10-2022, 00:00:20,    194,    0.2,    9.7,   0.00,   0.00, 1002.2,   66.9, -999.0
16-10-2022, 00:00:30,    225,    2.4,    9.7,   0.00,   0.00, 1002.3,   67.1, -999.0
16-10-2022, 00:00:40,    229,    0.8,    9.8,   0.00,   0.00, 1002.3,   67.1, -999.0
16-10-2022, 00:00:50,    214,    1.9,    9.7,   0.00,   0.00, 1002.3,   67.0, -999.0
16-10-2022, 00:01:00,    199,    1.0,    9.7,   0.00,   0.00, 1002.3,   67.1, -999.0
16-10-2022, 00:01:10,    216,    1.4,    9.8,   0.00,   0.00, 1002.3,   67.2, -999.0
16-10-2022, 00:01:19,    176,    3.1,    9.8,   0.00,   0.00, 1002.3,   67.2, -999.0
16-10-2022, 00:01:30,    244,    3.4,    9.8,   0.00,   0.00, 1002.3,   67.2, -999.0
16-10-2022, 00:01:40,    212,    0.9,    9.9,   0.00,   0.00, 1002.3,   67.1, -999.0
16-10-2022, 00:01:49,    171,    1.4,    9.8,   0.00,   0.00, 1002.3,   66.9, -999.0
16-10-2022, 00:02:00,    233,    2.4,    9.8,   0.00,   0.00, 1002.3,   67.1, -999.0
16-10-2022, 00:02:10,    209,    1.9,    9.8,   0.00,   0.00, 1002.3,   67.0, -999.0
16-10-2022, 00:02:19,    210,    1.0,    9.8,   0.00,   0.00, 1002.3,   66.9, -999.0
16-10-2022, 00:02:29,    211,    0.2,    9.8,   0.00,   0.00, 1002.3,   66.9, -999.0
16-10-2022, 00:02:39,    225,    0.7,    9.7,   0.00,   0.00, 1002.3,   67.0, -999.0
16-10-2022, 00:02:49,    224,    0.5,    9.8,   0.00,   0.00, 1002.3,   67.0, -999.0
16-10-2022, 00:02:59,    212,    0.8,    9.7,   0.00,   0.00, 1002.3,   67.0, -999.0
16-10-2022, 00:03:09,    200,    0.4,    9.7,   0.00,   0.00, 1002.3,   66.9, -999.0
16-10-2022, 00:03:19,    205,    3.3,    9.7,   0.00,   0.00, 1002.3,   67.1, -999.0
16-10-2022, 00:03:29,    241,    2.9,    9.8,   0.00,   0.00, 1002.3,   67.2, -999.0
16-10-2022, 00:03:39,    237,    2.4,    9.8,   0.00,   0.00, 1002.3,   67.1, -999.0
16-10-2022, 00:03:49,    178,    1.5,    9.7,   0.00,   0.00, 1002.3,   67.1, -999.0
16-10-2022, 00:03:59,    178,    0.1,    9.7,   0.00,   0.00, 1002.2,   66.9, -999.0
16-10-2022, 00:04:09,    178,    0.4,    9.7,   0.00,   0.00, 1002.2,   66.9, -999.0
16-10-2022, 00:04:19,    177,    0.2,    9.7,   0.00,   0.00, 1002.2,   66.9, -999.0
16-10-2022, 00:04:28,    177,    0.0,    9.7,   0.00,   0.00, 1002.1,   66.7, -999.0
16-10-2022, 00:04:39,    178,    0.1,    9.6,   0.00,   0.00, 1002.2,   66.9, -999.0
16-10-2022, 00:04:49,    249,    0.3,    9.7,   0.00,   0.00, 1002.3,   67.1, -999.0
16-10-2022, 00:04:58,    230,    1.0,    9.7,   0.00,   0.00, 1002.3,   67.1, -999.0
16-10-2022, 00:05:09,    196,    0.6,    9.6,   0.00,   0.00, 1002.3,   67.2, -999.0
16-10-2022, 00:05:19,    195,    0.1,    9.7,   0.00,   0.00, 1002.3,   67.1, -999.0
16-10-2022, 00:05:28,    227,    1.0,    9.7,   0.00,   0.00, 1002.3,   67.3, -999.0
16-10-2022, 00:05:38,    209,    2.7,    9.7,   0.00,   0.00, 1002.3,   67.4, -999.0
16-10-2022, 00:05:48,    235,    2.1,    9.7,   0.00,   0.00, 1002.4,   67.5, -999.0
16-10-2022, 00:05:58,    230,    3.9,    9.8,   0.00,   0.00, 1002.4,   67.5, -999.0
16-10-2022, 00:06:08,    234,    2.5,    9.8,   0.00,   0.00, 1002.3,   67.3, -999.0
16-10-2022, 00:06:18,    223,    2.7,    9.8,   0.00,   0.00, 1002.4,   67.4, -999.0
16-10-2022, 00:06:28,    195,    2.9,    9.8,   0.00,   0.00, 1002.4,   67.3, -999.0
16-10-2022, 00:06:38,    190,    1.5,    9.8,   0.00,   0.00, 1002.4,   67.3, -999.0
16-10-2022, 00:06:48,    189,    0.1,    9.7,   0.00,   0.00, 1002.2,   67.0, -999.0
16-10-2022, 00:06:58,    194,    0.0,    9.7,   0.00,   0.00, 1002.2,   67.0, -999.0
16-10-2022, 00:07:08,    224,    0.2,    9.7,   0.00,   0.00, 1002.2,   66.9, -999.0
16-10-2022, 00:07:18,    223,    0.1,    9.7,   0.00,   0.00, 1002.3,   67.1, -999.0
16-10-2022, 00:07:28,    208,    0.6,    9.7,   0.00,   0.00, 1002.3,   67.1, -999.0
16-10-2022, 00:07:38,    236,    2.8,    9.7,   0.00,   0.00, 1002.4,   67.4, -999.0
16-10-2022, 00:07:48,    221,    4.9,    9.7,   0.00,   0.00, 1002.4,   67.5, -999.0
16-10-2022, 00:07:58,    222,    4.1,    9.8,   0.00,   0.00, 1002.4,   67.4, -999.0
16-10-2022, 00:08:07,    196,    2.0,    9.8,   0.00,   0.00, 1002.4,   67.5, -999.0
16-10-2022, 00:08:18,    204,    3.5,    9.8,   0.00,   0.00, 1002.4,   67.5, -999.0
16-10-2022, 00:08:28,    176,    2.7,    9.8,   0.00,   0.00, 1002.4,   67.4, -999.0
16-10-2022, 00:08:37,    182,    2.3,    9.8,   0.00,   0.00, 1002.4,   67.5, -999.0
16-10-2022, 00:08:47,    182,    1.4,    9.8,   0.00,   0.00, 1002.4,   67.3, -999.0
16-10-2022, 00:08:57,    197,    1.1,    9.7,   0.00,   0.00, 1002.3,   67.1, -999.0
16-10-2022, 00:09:07,    217,    2.7,    9.8,   0.00,   0.00, 1002.3,   67.4, -999.0
16-10-2022, 00:09:17,    190,    1.7,    9.7,   0.00,   0.00, 1002.4,   67.5, -999.0
16-10-2022, 00:09:27,    216,    1.5,    9.7,   0.00,   0.00, 1002.4,   67.5, -999.0
16-10-2022, 00:09:37,    199,    0.1,    9.7,   0.00,   0.00, 1002.3,   67.3, -999.0
16-10-2022, 00:09:47,    237,    0.7,    9.7,   0.00,   0.00, 1002.3,   67.3, -999.0
16-10-2022, 00:09:57,    193,    1.3,    9.7,   0.00,   0.00, 1002.4,   67.5, -999.0
16-10-2022, 00:10:07,    223,    2.6,    9.7,   0.00,   0.00, 1002.4,   67.5, -999.0
16-10-2022, 00:10:17,    206,    1.4,    9.7,   0.00,   0.00, 1002.4,   67.5, -999.0
16-10-2022, 00:10:27,    191,    1.7,    9.7,   0.00,   0.00, 1002.4,   67.6, -999.0
16-10-2022, 00:10:39,    260,    3.4,    9.7,   0.00,   0.00, 1002.4,   67.7, -999.0
16-10-2022, 00:10:47,    140,    1.5,    9.8,   0.00,   0.00, 1002.4,   67.6, -999.0
16-10-2022, 00:10:57,    195,    1.5,    9.8,   0.00,   0.00, 1002.4,   67.6, -999.0
16-10-2022, 00:11:07,    197,    1.3,    9.8,   0.00,   0.00, 1002.4,   67.6, -999.0
16-10-2022, 00:11:18,    213,    1.3,    9.7,   0.00,   0.00, 1002.4,   67.6, -999.0
16-10-2022, 00:11:27,    220,    2.5,    9.7,   0.00,   0.00, 1002.4,   67.6, -999.0
16-10-2022, 00:11:37,    194,    1.2,    9.7,   0.00,   0.00, 1002.4,   67.5, -999.0
16-10-2022, 00:11:46,    222,    2.1,    9.7,   0.00,   0.00, 1002.5,   67.6, -999.0
16-10-2022, 00:11:56,    219,    1.9,    9.7,   0.00,   0.00, 1002.4,   67.6, -999.0
16-10-2022, 00:12:06,    180,    3.7,    9.7,   0.00,   0.00, 1002.4,   67.6, -999.0
16-10-2022, 00:12:16,    216,    3.4,    9.7,   0.00,   0.00, 1002.4,   67.6, -999.0
16-10-2022, 00:12:26,    191,    2.7,    9.7,   0.00,   0.00, 1002.5,   67.6, -999.0
16-10-2022, 00:12:36,    189,    2.4,    9.7,   0.00,   0.00, 1002.4,   67.6, -999.0
16-10-2022, 00:12:46,    209,    2.0,    9.7,   0.00,   0.00, 1002.4,   67.7, -999.0
16-10-2022, 00:12:56,    212,    0.6,    9.7,   0.00,   0.00, 1002.4,   67.6, -999.0
16-10-2022, 00:13:06,    203,    1.8,    9.7,   0.00,   0.00, 1002.4,   67.6, -999.0
16-10-2022, 00:13:16,    217,    1.7,    9.7,   0.00,   0.00, 1002.4,   67.6, -999.0
16-10-2022, 00:13:26,    189,    3.1,    9.7,   0.00,   0.00, 1002.4,   67.7, -999.0
16-10-2022, 00:13:36,    216,    3.4,    9.7,   0.00,   0.00, 1002.4,   67.7, -999.0
16-10-2022, 00:13:46,    195,    2.4,    9.7,   0.00,   0.00, 1002.4,   67.7, -999.0
16-10-2022, 00:13:56,    216,    3.2,    9.7,   0.00,   0.00, 1002.4,   67.7, -999.0
16-10-2022, 00:14:06,    206,    0.5,    9.7,   0.00,   0.00, 1002.3,   67.6, -999.0
16-10-2022, 00:14:16,    200,    0.1,    9.7,   0.00,   0.00, 1002.3,   67.5, -999.0
16-10-2022, 00:14:25,    207,    2.1,    9.7,   0.00,   0.00, 1002.4,   67.7, -999.0
16-10-2022, 00:14:36,    218,    3.4,    9.7,   0.00,   0.00, 1002.4,   67.7, -999.0
16-10-2022, 00:14:46,    213,    1.8,    9.7,   0.00,   0.00, 1002.3,   67.7, -999.0
16-10-2022, 00:14:55,    230,    1.8,    9.8,   0.00,   0.00, 1002.4,   67.8, -999.0
16-10-2022, 00:15:06,    171,    1.3,    9.7,   0.00,   0.00, 1002.4,   67.8, -999.0
16-10-2022, 00:15:15,    220,    1.6,    9.7,   0.00,   0.00, 1002.4,   67.8, -999.0
16-10-2022, 00:15:25,    218,    0.6,    9.7,   0.00,   0.00, 1002.4,   67.7, -999.0
16-10-2022, 00:15:35,    193,    1.3,    9.6,   0.00,   0.00, 1002.4,   67.9, -999.0
16-10-2022, 00:15:45,    189,    1.9,    9.7,   0.00,   0.00, 1002.3,   68.0, -999.0
16-10-2022, 00:15:55,    229,    2.7,    9.7,   0.00,   0.00, 1002.4,   68.0, -999.0
16-10-2022, 00:16:05,    180,    1.3,    9.7,   0.00,   0.00, 1002.4,   68.0, -999.0
16-10-2022, 00:16:15,    199,    1.2,    9.7,   0.00,   0.00, 1002.3,   67.9, -999.0
16-10-2022, 00:16:25,    190,    1.6,    9.7,   0.00,   0.00, 1002.3,   68.0, -999.0
16-10-2022, 00:16:35,    201,    1.2,    9.6,   0.00,   0.00, 1002.3,   68.0, -999.0
16-10-2022, 00:16:45,    216,    0.6,    9.7,   0.00,   0.00, 1002.3,   67.9, -999.0
16-10-2022, 00:16:55,    197,    2.1,    9.7,   0.00,   0.00, 1002.4,   67.9, -999.0
16-10-2022, 00:17:05,    186,    1.0,    9.7,   0.00,   0.00, 1002.3,   68.0, -999.0
16-10-2022, 00:17:15,    152,    1.8,    9.7,   0.00,   0.00, 1002.3,   67.9, -999.0
16-10-2022, 00:17:25,    200,    3.6,    9.7,   0.00,   0.00, 1002.4,   67.9, -999.0
16-10-2022, 00:17:34,    197,    2.8,    9.7,   0.00,   0.00, 1002.3,   68.0, -999.0
16-10-2022, 00:17:45,    209,    2.2,    9.7,   0.00,   0.00, 1002.4,   67.9, -999.0
16-10-2022, 00:17:55,    210,    3.1,    9.7,   0.00,   0.00, 1002.4,   67.9, -999.0
16-10-2022, 00:18:04,    177,    2.0,    9.8,   0.00,   0.00, 1002.4,   67.8, -999.0
16-10-2022, 00:18:15,    192,    2.1,    9.8,   0.00,   0.00, 1002.3,   67.8, -999.0
16-10-2022, 00:18:24,    215,    1.6,    9.7,   0.00,   0.00, 1002.3,   67.9, -999.0
16-10-2022, 00:18:34,    155,    1.7,    9.7,   0.00,   0.00, 1002.3,   67.8, -999.0
16-10-2022, 00:18:44,    217,    2.8,    9.7,   0.00,   0.00, 1002.3,   67.8, -999.0
16-10-2022, 00:18:54,    206,    3.1,    9.7,   0.00,   0.00, 1002.4,   67.9, -999.0
16-10-2022, 00:19:04,    190,    2.6,    9.7,   0.00,   0.00, 1002.3,   67.9, -999.0
16-10-2022, 00:19:14,    189,    3.1,    9.7,   0.00,   0.00, 1002.3,   67.8, -999.0
16-10-2022, 00:19:24,    183,    3.7,    9.7,   0.00,   0.00, 1002.4,   67.8, -999.0
16-10-2022, 00:19:34,    219,    2.3,    9.8,   0.00,   0.00, 1002.3,   67.8, -999.0
16-10-2022, 00:19:44,    226,    2.4,    9.7,   0.00,   0.00, 1002.3,   67.8, -999.0
16-10-2022, 00:19:54,    185,    1.7,    9.8,   0.00,   0.00, 1002.3,   67.8, -999.0
16-10-2022, 00:20:04,    212,    1.5,    9.8,   0.00,   0.00, 1002.3,   67.8, -999.0
16-10-2022, 00:20:14,    192,    0.8,    9.7,   0.00,   0.00, 1002.3,   67.6, -999.0
16-10-2022, 00:20:24,    217,    1.2,    9.7,   0.00,   0.00, 1002.3,   67.6, -999.0
16-10-2022, 00:20:34,    213,    1.8,    9.8,   0.00,   0.00, 1002.3,   67.8, -999.0
16-10-2022, 00:20:44,    207,    1.1,    9.7,   0.00,   0.00, 1002.3,   67.7, -999.0
16-10-2022, 00:20:54,    211,    2.1,    9.8,   0.00,   0.00, 1002.4,   67.7, -999.0
16-10-2022, 00:21:04,    179,    3.6,    9.8,   0.00,   0.00, 1002.3,   67.8, -999.0
16-10-2022, 00:21:13,    169,    1.7,    9.7,   0.00,   0.00, 1002.3,   67.7, -999.0
16-10-2022, 00:21:24,    169,    0.0,    9.6,   0.00,   0.00, 1002.2,   67.4, -999.0
16-10-2022, 00:21:33,    211,    0.3,    9.6,   0.00,   0.00, 1002.3,   67.5, -999.0
16-10-2022, 00:21:43,    212,    3.1,    9.7,   0.00,   0.00, 1002.3,   67.8, -999.0
16-10-2022, 00:21:53,    211,    1.7,    9.7,   0.00,   0.00, 1002.4,   67.7, -999.0
16-10-2022, 00:22:03,    198,    2.0,    9.7,   0.00,   0.00, 1002.4,   67.8, -999.0
16-10-2022, 00:22:13,    179,    2.1,    9.7,   0.00,   0.00, 1002.3,   67.8, -999.0
16-10-2022, 00:22:23,    202,    2.1,    9.7,   0.00,   0.00, 1002.3,   67.8, -999.0
16-10-2022, 00:22:33,    224,    3.3,    9.7,   0.00,   0.00, 1002.3,   67.9, -999.0
16-10-2022, 00:22:43,    217,    2.7,    9.8,   0.00,   0.00, 1002.3,   67.8, -999.0
16-10-2022, 00:22:53,    197,    1.8,    9.8,   0.00,   0.00, 1002.4,   67.8, -999.0
16-10-2022, 00:23:03,    173,    1.1,    9.7,   0.00,   0.00, 1002.3,   67.8, -999.0
16-10-2022, 00:23:13,    171,    2.3,    9.7,   0.00,   0.00, 1002.4,   67.8, -999.0
16-10-2022, 00:23:23,    145,    5.6,    9.7,   0.00,   0.00, 1002.4,   67.7, -999.0
16-10-2022, 00:23:33,    234,    3.5,    9.8,   0.00,   0.00, 1002.4,   67.7, -999.0
16-10-2022, 00:23:43,    201,    2.3,    9.8,   0.00,   0.00, 1002.4,   67.6, -999.0
16-10-2022, 00:23:53,    207,    2.2,    9.8,   0.00,   0.00, 1002.3,   67.6, -999.0
16-10-2022, 00:24:03,    204,    2.4,    9.7,   0.00,   0.00, 1002.4,   67.6, -999.0
16-10-2022, 00:24:12,    191,    2.4,    9.8,   0.00,   0.00, 1002.4,   67.6, -999.0
16-10-2022, 00:24:22,    242,    3.4,    9.8,   0.00,   0.00, 1002.4,   67.6, -999.0
16-10-2022, 00:24:33,    201,    1.4,    9.7,   0.00,   0.00, 1002.4,   67.6, -999.0
16-10-2022, 00:24:42,    209,    1.8,    9.8,   0.00,   0.00, 1002.4,   67.6, -999.0
16-10-2022, 00:24:52,    211,    0.7,    9.7,   0.00,   0.00, 1002.3,   67.6, -999.0
16-10-2022, 00:25:02,    194,    0.4,    9.7,   0.00,   0.00, 1002.3,   67.5, -999.0
16-10-2022, 00:25:12,    182,    0.6,    9.7,   0.00,   0.00, 1002.3,   67.8, -999.0
16-10-2022, 00:25:22,    181,    0.0,    9.6,   0.00,   0.00, 1002.2,   67.5, -999.0
16-10-2022, 00:25:32,    182,    0.0,    9.6,   0.00,   0.00, 1002.2,   67.5, -999.0
16-10-2022, 00:25:42,    261,    0.6,    9.6,   0.00,   0.00, 1002.4,   67.7, -999.0
16-10-2022, 00:25:52,    223,    3.5,    9.7,   0.00,   0.00, 1002.3,   67.8, -999.0
16-10-2022, 00:26:02,    220,    2.1,    9.7,   0.00,   0.00, 1002.4,   67.7, -999.0
16-10-2022, 00:26:12,    217,    0.1,    9.6,   0.00,   0.00, 1002.3,   67.6, -999.0
16-10-2022, 00:26:22,    199,    0.3,    9.7,   0.00,   0.00, 1002.3,   67.6, -999.0
16-10-2022, 00:26:32,    198,    0.0,    9.6,   0.00,   0.00, 1002.2,   67.6, -999.0
16-10-2022, 00:26:42,    229,    0.9,    9.7,   0.00,   0.00, 1002.4,   67.8, -999.0
16-10-2022, 00:26:52,    216,    1.4,    9.7,   0.00,   0.00, 1002.4,   67.9, -999.0
16-10-2022, 00:27:02,    204,    0.6,    9.6,   0.00,   0.00, 1002.3,   67.7, -999.0
16-10-2022, 00:27:12,    212,    0.5,    9.6,   0.00,   0.00, 1002.3,   67.8, -999.0
16-10-2022, 00:27:21,    209,    0.0,    9.5,   0.00,   0.00, 1002.2,   67.7, -999.0
16-10-2022, 00:27:31,    209,    0.3,    9.6,   0.00,   0.00, 1002.4,   67.9, -999.0
16-10-2022, 00:27:42,    230,    2.3,    9.6,   0.00,   0.00, 1002.4,   68.1, -999.0
16-10-2022, 00:27:51,    162,    1.0,    9.6,   0.00,   0.00, 1002.4,   68.1, -999.0
16-10-2022, 00:28:01,    169,    0.3,    9.6,   0.00,   0.00, 1002.4,   67.8, -999.0
16-10-2022, 00:28:11,    180,    2.6,    9.6,   0.00,   0.00, 1002.4,   68.1, -999.0
16-10-2022, 00:28:21,    225,    2.7,    9.7,   0.00,   0.00, 1002.4,   68.1, -999.0
16-10-2022, 00:28:31,    220,    0.9,    9.6,   0.00,   0.00, 1002.4,   68.0, -999.0
16-10-2022, 00:28:41,    219,    0.0,    9.6,   0.00,   0.00, 1002.4,   67.8, -999.0
16-10-2022, 00:28:51,    218,    0.6,    9.6,   0.00,   0.00, 1002.4,   67.9, -999.0
16-10-2022, 00:29:01,    219,    0.4,    9.6,   0.00,   0.00, 1002.3,   67.9, -999.0
16-10-2022, 00:29:11,    219,    0.0,    9.5,   0.00,   0.00, 1002.3,   67.6, -999.0
16-10-2022, 00:29:21,    219,    0.0,    9.5,   0.00,   0.00, 1002.3,   67.7, -999.0
16-10-2022, 00:29:31,    218,    0.0,    9.5,   0.00,   0.00, 1002.3,   67.6, -999.0
16-10-2022, 00:29:41,    192,    0.5,    9.6,   0.00,   0.00, 1002.4,   67.9, -999.0
16-10-2022, 00:29:51,    205,    2.2,    9.7,   0.00,   0.00, 1002.4,   68.0, -999.0
16-10-2022, 00:30:01,    186,    2.3,    9.7,   0.00,   0.00, 1002.4,   68.1, -999.0
16-10-2022, 00:30:11,    217,    3.5,    9.7,   0.00,   0.00, 1002.5,   68.0, -999.0
16-10-2022, 00:30:21,    278,    1.6,    9.7,   0.00,   0.00, 1002.5,   68.1, -999.0
16-10-2022, 00:30:31,    212,    3.8,    9.7,   0.00,   0.00, 1002.5,   68.1, -999.0
16-10-2022, 00:30:40,    229,    4.4,    9.7,   0.00,   0.00, 1002.5,   68.0, -999.0
16-10-2022, 00:30:51,    209,    2.5,    9.7,   0.00,   0.00, 1002.5,   67.9, -999.0
16-10-2022, 00:31:00,    215,    1.6,    9.7,   0.00,   0.00, 1002.5,   67.9, -999.0
16-10-2022, 00:31:10,    209,    1.5,    9.7,   0.00,   0.00, 1002.4,   67.9, -999.0
16-10-2022, 00:31:20,    173,    1.8,    9.7,   0.00,   0.00, 1002.4,   67.9, -999.0
16-10-2022, 00:31:30,    206,    0.3,    9.7,   0.00,   0.00, 1002.4,   67.7, -999.0
16-10-2022, 00:31:40,    160,    1.8,    9.7,   0.00,   0.00, 1002.4,   67.9, -999.0
16-10-2022, 00:31:50,    160,    0.4,    9.6,   0.00,   0.00, 1002.3,   67.7, -999.0
16-10-2022, 00:32:00,    179,    0.4,    9.7,   0.00,   0.00, 1002.4,   67.8, -999.0
16-10-2022, 00:32:10,    197,    1.9,    9.7,   0.00,   0.00, 1002.4,   67.9, -999.0
16-10-2022, 00:32:20,    181,    1.8,    9.7,   0.00,   0.00, 1002.4,   68.0, -999.0
16-10-2022, 00:32:30,    230,    2.2,    9.7,   0.00,   0.00, 1002.4,   68.0, -999.0
16-10-2022, 00:32:40,    217,    2.5,    9.6,   0.00,   0.00, 1002.5,   67.9, -999.0
16-10-2022, 00:32:50,    185,    2.9,    9.7,   0.00,   0.00, 1002.5,   67.9, -999.0
16-10-2022, 00:33:00,    221,    5.2,    9.7,   0.00,   0.00, 1002.5,   67.9, -999.0
16-10-2022, 00:33:10,    205,    4.1,    9.7,   0.00,   0.00, 1002.5,   68.0, -999.0
16-10-2022, 00:33:20,    174,    3.5,    9.7,   0.00,   0.00, 1002.4,   68.0, -999.0
16-10-2022, 00:33:30,    224,    1.3,    9.7,   0.00,   0.00, 1002.4,   67.9, -999.0
16-10-2022, 00:33:39,    220,    0.5,    9.6,   0.00,   0.00, 1002.4,   67.8, -999.0
16-10-2022, 00:33:50,    192,    0.9,    9.7,   0.00,   0.00, 1002.4,   67.9, -999.0
16-10-2022, 00:34:00,    214,    1.5,    9.7,   0.00,   0.00, 1002.4,   68.0, -999.0
16-10-2022, 00:34:09,    206,    1.3,    9.7,   0.00,   0.00, 1002.4,   67.9, -999.0
16-10-2022, 00:34:19,    215,    0.7,    9.7,   0.00,   0.00, 1002.4,   68.0, -999.0
16-10-2022, 00:34:30,    215,    0.6,    9.6,   0.00,   0.00, 1002.3,   67.9, -999.0
16-10-2022, 00:34:39,    223,    0.8,    9.7,   0.00,   0.00, 1002.4,   68.1, -999.0
16-10-2022, 00:34:49,    223,    0.2,    9.6,   0.00,   0.00, 1002.4,   68.0, -999.0
16-10-2022, 00:34:59,    223,    0.2,    9.6,   0.00,   0.00, 1002.3,   68.0, -999.0
16-10-2022, 00:35:09,    174,    0.3,    9.5,   0.00,   0.00, 1002.3,   67.9, -999.0
16-10-2022, 00:35:19,    234,    0.3,    9.5,   0.00,   0.00, 1002.3,   67.9, -999.0
16-10-2022, 00:35:29,    189,    1.8,    9.6,   0.00,   0.00, 1002.4,   68.2, -999.0
16-10-2022, 00:35:39,    234,    2.3,    9.6,   0.00,   0.00, 1002.4,   68.1, -999.0
16-10-2022, 00:35:49,    207,    3.1,    9.6,   0.00,   0.00, 1002.5,   68.2, -999.0
16-10-2022, 00:35:59,    206,    3.3,    9.6,   0.00,   0.00, 1002.4,   68.3, -999.0
16-10-2022, 00:36:09,    194,    3.2,    9.7,   0.00,   0.00, 1002.4,   68.4, -999.0
16-10-2022, 00:36:19,    190,    1.3,    9.6,   0.00,   0.00, 1002.5,   68.3, -999.0
16-10-2022, 00:36:29,    206,    0.9,    9.6,   0.00,   0.00, 1002.4,   68.2, -999.0
16-10-2022, 00:36:39,    209,    1.9,    9.7,   0.00,   0.00, 1002.5,   68.3, -999.0
16-10-2022, 00:36:48,    210,    2.7,    9.6,   0.00,   0.00, 1002.4,   68.2, -999.0
16-10-2022, 00:36:59,    207,    1.0,    9.7,   0.00,   0.00, 1002.4,   68.3, -999.0
16-10-2022, 00:37:09,    196,    2.9,    9.7,   0.00,   0.00, 1002.4,   68.3, -999.0
16-10-2022, 00:37:18,    189,    2.2,    9.7,   0.00,   0.00, 1002.5,   68.3, -999.0
16-10-2022, 00:37:28,    201,    1.4,    9.5,   0.00,   0.00, 1002.5,   68.3, -999.0
16-10-2022, 00:37:39,    208,    1.2,    9.6,   0.00,   0.00, 1002.4,   68.3, -999.0
16-10-2022, 00:37:48,    214,    1.7,    9.6,   0.00,   0.00, 1002.5,   68.4, -999.0
16-10-2022, 00:37:58,    211,    2.2,    9.6,   0.00,   0.00, 1002.5,   68.5, -999.0
16-10-2022, 00:38:08,    209,    1.9,    9.6,   0.00,   0.00, 1002.5,   68.5, -999.0
16-10-2022, 00:38:18,    214,    0.7,    9.5,   0.00,   0.00, 1002.5,   68.5, -999.0
16-10-2022, 00:38:28,    209,    0.5,    9.5,   0.00,   0.00, 1002.5,   68.4, -999.0
16-10-2022, 00:38:38,    204,    0.7,    9.5,   0.00,   0.00, 1002.4,   68.4, -999.0
16-10-2022, 00:38:48,    191,    3.1,    9.6,   0.00,   0.00, 1002.5,   68.6, -999.0
16-10-2022, 00:38:58,    253,    3.5,    9.6,   0.00,   0.00, 1002.4,   68.6, -999.0
16-10-2022, 00:39:08,    250,    0.5,    9.6,   0.00,   0.00, 1002.4,   68.6, -999.0
16-10-2022, 00:39:18,    174,    0.5,    9.5,   0.00,   0.00, 1002.5,   68.6, -999.0
16-10-2022, 00:39:28,    210,    0.8,    9.6,   0.00,   0.00, 1002.5,   68.6, -999.0
16-10-2022, 00:39:38,    209,    0.0,    9.5,   0.00,   0.00, 1002.3,   68.3, -999.0
16-10-2022, 00:39:48,    211,    0.3,    9.5,   0.00,   0.00, 1002.4,   68.5, -999.0
16-10-2022, 00:39:57,    211,    0.0,    9.5,   0.00,   0.00, 1002.3,   68.4, -999.0
16-10-2022, 00:40:08,    211,    0.1,    9.4,   0.00,   0.00, 1002.4,   68.3, -999.0
16-10-2022, 00:40:18,    182,    1.8,    9.5,   0.00,   0.00, 1002.5,   68.8, -999.0
16-10-2022, 00:40:27,    189,    3.4,    9.6,   0.00,   0.00, 1002.5,   68.9, -999.0
16-10-2022, 00:40:37,    213,    2.3,    9.5,   0.00,   0.00, 1002.4,   69.0, -999.0
16-10-2022, 00:40:48,    173,    0.4,    9.5,   0.00,   0.00, 1002.4,   68.8, -999.0
16-10-2022, 00:40:57,    182,    0.3,    9.5,   0.00,   0.00, 1002.3,   68.7, -999.0
16-10-2022, 00:41:07,    185,    1.4,    9.5,   0.00,   0.00, 1002.4,   68.9, -999.0
16-10-2022, 00:41:17,    216,    2.7,    9.5,   0.00,   0.00, 1002.4,   69.0, -999.0
16-10-2022, 00:41:27,    220,    2.5,    9.5,   0.00,   0.00, 1002.4,   69.0, -999.0
16-10-2022, 00:41:37,    216,    1.1,    9.5,   0.00,   0.00, 1002.4,   69.0, -999.0
16-10-2022, 00:41:47,    183,    2.5,    9.6,   0.00,   0.00, 1002.5,   69.1, -999.0
16-10-2022, 00:41:57,    211,    3.0,    9.6,   0.00,   0.00, 1002.4,   69.1, -999.0
16-10-2022, 00:42:07,    223,    4.6,    9.6,   0.00,   0.00, 1002.4,   69.1, -999.0
16-10-2022, 00:42:17,    193,    3.8,    9.6,   0.00,   0.00, 1002.4,   69.1, -999.0
16-10-2022, 00:42:27,    231,    4.6,    9.7,   0.00,   0.00, 1002.4,   69.1, -999.0
16-10-2022, 00:42:37,    198,    3.4,    9.6,   0.00,   0.00, 1002.4,   69.1, -999.0
16-10-2022, 00:42:47,    157,    2.6,    9.7,   0.00,   0.00, 1002.4,   69.0, -999.0
16-10-2022, 00:42:57,    178,    0.9,    9.6,   0.00,   0.00, 1002.3,   68.9, -999.0
16-10-2022, 00:43:07,    228,    2.0,    9.6,   0.00,   0.00, 1002.4,   69.0, -999.0
16-10-2022, 00:43:16,    219,    2.3,    9.6,   0.00,   0.00, 1002.4,   69.0, -999.0
16-10-2022, 00:43:27,    215,    3.0,    9.6,   0.00,   0.00, 1002.4,   69.0, -999.0
16-10-2022, 00:43:36,    214,    3.2,    9.6,   0.00,   0.00, 1002.4,   69.1, -999.0
16-10-2022, 00:43:46,    198,    1.9,    9.6,   0.00,   0.00, 1002.4,   69.0, -999.0
16-10-2022, 00:43:57,    213,    1.8,    9.7,   0.00,   0.00, 1002.4,   69.1, -999.0
16-10-2022, 00:44:06,    213,    1.0,    9.7,   0.00,   0.00, 1002.4,   68.9, -999.0
16-10-2022, 00:44:16,    214,    0.1,    9.6,   0.00,   0.00, 1002.3,   68.7, -999.0
16-10-2022, 00:44:26,    216,    1.4,    9.7,   0.00,   0.00, 1002.4,   69.0, -999.0
16-10-2022, 00:44:36,    208,    0.9,    9.7,   0.00,   0.00, 1002.4,   69.0, -999.0
16-10-2022, 00:44:46,    207,    2.4,    9.7,   0.00,   0.00, 1002.4,   69.1, -999.0
16-10-2022, 00:44:56,    171,    0.9,    9.6,   0.00,   0.00, 1002.4,   68.9, -999.0
16-10-2022, 00:45:06,    197,    1.1,    9.6,   0.00,   0.00, 1002.3,   69.0, -999.0
16-10-2022, 00:45:16,    200,    0.7,    9.6,   0.00,   0.00, 1002.3,   69.0, -999.0
16-10-2022, 00:45:26,    222,    2.2,    9.6,   0.00,   0.00, 1002.4,   69.1, -999.0
16-10-2022, 00:45:36,    206,    2.5,    9.6,   0.00,   0.00, 1002.4,   69.2, -999.0
16-10-2022, 00:45:46,    207,    1.6,    9.7,   0.00,   0.00, 1002.4,   69.1, -999.0
16-10-2022, 00:45:56,    220,    1.7,    9.7,   0.00,   0.00, 1002.4,   69.1, -999.0
16-10-2022, 00:46:06,    199,    1.0,    9.6,   0.00,   0.00, 1002.4,   69.1, -999.0
16-10-2022, 00:46:16,    206,    1.4,    9.6,   0.00,   0.00, 1002.4,   69.1, -999.0
16-10-2022, 00:46:26,    202,    2.1,    9.6,   0.00,   0.00, 1002.4,   69.1, -999.0
16-10-2022, 00:46:36,    219,    1.4,    9.6,   0.00,   0.00, 1002.4,   69.2, -999.0